Location: Seasalter
(51.3333°N, 1.0167°E)
Time: 13:13:44
(UTC+00:00)

Cosmos 1900 - Pass Details

Date: 26 September 2023
Orbit: 679 x 741 km, 66.1° (Epoch: 28 November)

Event Time Altitude Azimuth Distance (km) Brightness Sun altitude
Rises 04:24:32 0° 320° (NW) 3,144 7.4 -13.7°
Reaches altitude 10° 04:26:53 10° 319° (NW) 2,229 6.7 -13.3°
Maximum altitude 04:31:59 81° 234° (SW) 749 4.3 -12.6°
Drops below altitude 10° 04:37:08 10° 147° (SSE) 2,242 7.2 -11.8°
Sets 04:39:30 0° 147° (SSE) 3,165 8.0 -11.4°
